When you browse on this site, cookies collect data to enhance your experience and personalize the content and advertising you see.
Visit our Privacy Policy to learn more. By continuing to use the site, you agree to this use of cookies and data.
  • In Romania
  • List of Countries
  • For 7 days
  • Water Temperature
  • Satellite Maps
  • Weather Map
  • Weather Widgets
  • user-avatar
    Login

    Hourly Weather Tromsø

    Today, 25 May, Saturday

    Time Temperature Precipitation Wind Pressure Humidity
    00:00 +3°C° 0 mm 2 mps 747 mmHg 76%
    01:00 +2°C° 0 mm 2 mps 748 mmHg 83%
    02:00 +2°C° 0 mm 2 mps 747 mmHg 82%
    03:00 +2°C° 0 mm 2 mps 747 mmHg 82%
    04:00 +3°C° 0 mm 2 mps 747 mmHg 81%
    05:00 +3°C° 0 mm 2 mps 747 mmHg 80%
    06:00 +3°C° 0 mm 2 mps 747 mmHg 78%
    07:00 +3°C° 0 mm 2 mps 747 mmHg 75%
    08:00 +3°C° 0 mm 2 mps 747 mmHg 73%
    09:00 +4°C° 0 mm 2 mps 747 mmHg 72%
    10:00 +4°C° 0 mm 2 mps 747 mmHg 70%
    11:00 +4°C° 0 mm 2 mps 746 mmHg 68%
    12:00 +5°C° 0 mm 2 mps 746 mmHg 67%
    13:00 +5°C° 0 mm 2 mps 746 mmHg 66%
    14:00 +5°C° 0 mm 2 mps 746 mmHg 67%
    15:00 +5°C° 0 mm 2 mps 746 mmHg 67%
    16:00 +4°C° 0 mm 3 mps 745 mmHg 67%
    17:00 +3°C° 0 mm 3 mps 745 mmHg 68%
    18:00 +4°C° 0 mm 2 mps 745 mmHg 69%
    19:00 +4°C° 0 mm 2 mps 744 mmHg 70%
    20:00 +4°C° 0 mm 2 mps 744 mmHg 72%
    21:00 +3°C° 0 mm 2 mps 744 mmHg 74%
    22:00 +3°C° 0 mm 2 mps 744 mmHg 76%
    23:00 +2°C° 0 mm 2 mps 743 mmHg 78%

    Tomorrow, 26 May, Sunday

    Time Temperature Precipitation Wind Pressure Humidity
    00:00 +3°C° 0 mm 1 mps 743 mmHg 80%
    01:00 +2°C° 0 mm 1 mps 743 mmHg 82%
    02:00 +3°C° 0 mm 1 mps 742 mmHg 80%
    03:00 +3°C° 0 mm 1 mps 742 mmHg 78%
    04:00 +2°C° 0 mm 0 mps 742 mmHg 77%
    05:00 +2°C° 0 mm 0 mps 741 mmHg 75%
    06:00 +4°C° 0 mm 1 mps 741 mmHg 73%
    07:00 +4°C° 0 mm 1 mps 741 mmHg 72%
    08:00 +4°C° 0.1 mm 1 mps 741 mmHg 71%
    09:00 +5°C° 0.1 mm 1 mps 741 mmHg 69%
    10:00 +5°C° 0.1 mm 1 mps 741 mmHg 68%
    11:00 +5°C° 0.3 mm 1 mps 741 mmHg 70%
    12:00 +4°C° 0.3 mm 2 mps 741 mmHg 72%
    13:00 +5°C° 0.3 mm 2 mps 741 mmHg 74%
    14:00 +4°C° 0.3 mm 2 mps 740 mmHg 76%
    15:00 +3°C° 0.3 mm 3 mps 740 mmHg 78%
    16:00 +3°C° 0.3 mm 3 mps 740 mmHg 80%
    17:00 +3°C° 0.1 mm 3 mps 740 mmHg 80%
    18:00 +3°C° 0.1 mm 3 mps 740 mmHg 81%
    19:00 +2°C° 0.1 mm 3 mps 740 mmHg 81%
    20:00 +3°C° 0 mm 2 mps 739 mmHg 82%
    21:00 +3°C° 0 mm 2 mps 739 mmHg 83%
    22:00 +3°C° 0 mm 2 mps 739 mmHg 83%
    23:00 +4°C° 0.1 mm 1 mps 739 mmHg 84%

    Day after tomorrow, 27 May, Monday

    Time Temperature Precipitation Wind Pressure Humidity
    00:00 +3°C° 0.1 mm 1 mps 738 mmHg 86%
    01:00 +3°C° 0.1 mm 1 mps 738 mmHg 87%
    02:00 +3°C° 0.2 mm 1 mps 738 mmHg 87%
    03:00 +2°C° 0.2 mm 0 mps 738 mmHg 86%
    04:00 +2°C° 0.2 mm 0 mps 737 mmHg 86%
    05:00 +3°C° 0.6 mm 1 mps 737 mmHg 87%
    06:00 +4°C° 0.6 mm 1 mps 737 mmHg 87%
    07:00 +4°C° 0.6 mm 1 mps 737 mmHg 88%
    08:00 +4°C° 0.2 mm 1 mps 737 mmHg 84%
    09:00 +4°C° 0.2 mm 1 mps 737 mmHg 80%
    10:00 +5°C° 0.2 mm 1 mps 737 mmHg 77%
    11:00 +5°C° 0.1 mm 1 mps 738 mmHg 73%
    12:00 +6°C° 0.1 mm 1 mps 738 mmHg 69%
    13:00 +6°C° 0.1 mm 1 mps 739 mmHg 66%
    14:00 +6°C° 0.1 mm 1 mps 739 mmHg 68%
    15:00 +5°C° 0.1 mm 2 mps 739 mmHg 70%
    16:00 +5°C° 0.1 mm 2 mps 739 mmHg 72%
    17:00 +5°C° 0 mm 2 mps 739 mmHg 73%
    18:00 +5°C° 0 mm 2 mps 740 mmHg 74%
    19:00 +5°C° 0 mm 2 mps 740 mmHg 75%
    20:00 +4°C° 0 mm 2 mps 740 mmHg 78%
    21:00 +5°C° 0 mm 1 mps 740 mmHg 81%
    22:00 +4°C° 0 mm 1 mps 740 mmHg 83%
    23:00 +4°C° 0 mm 1 mps 741 mmHg 85%

    28 May, Tuesday

    Time Temperature Precipitation Wind Pressure Humidity
    00:00 +2°C° 0 mm 0 mps 741 mmHg 87%
    01:00 +2°C° 0 mm 0 mps 742 mmHg 89%
    02:00 +2°C° 0 mm 0 mps 742 mmHg 86%
    03:00 +3°C° 0 mm 0 mps 742 mmHg 84%
    04:00 +3°C° 0 mm 0 mps 743 mmHg 81%
    05:00 +4°C° 0 mm 0 mps 743 mmHg 77%
    06:00 +5°C° 0 mm 1 mps 744 mmHg 73%
    07:00 +6°C° 0 mm 1 mps 744 mmHg 69%
    08:00 +5°C° 0 mm 2 mps 745 mmHg 67%
    09:00 +6°C° 0 mm 2 mps 745 mmHg 65%
    10:00 +6°C° 0 mm 2 mps 746 mmHg 63%
    11:00 +6°C° 0 mm 2 mps 746 mmHg 62%
    12:00 +7°C° 0 mm 2 mps 747 mmHg 61%
    13:00 +7°C° 0 mm 2 mps 747 mmHg 60%
    14:00 +7°C° 0 mm 2 mps 747 mmHg 59%
    15:00 +8°C° 0 mm 2 mps 748 mmHg 59%
    16:00 +8°C° 0 mm 2 mps 748 mmHg 59%
    17:00 +8°C° 0 mm 2 mps 748 mmHg 59%
    18:00 +8°C° 0 mm 2 mps 748 mmHg 60%
    19:00 +7°C° 0 mm 2 mps 749 mmHg 60%
    20:00 +7°C° 0 mm 2 mps 749 mmHg 63%
    21:00 +7°C° 0 mm 1 mps 749 mmHg 67%
    22:00 +7°C° 0 mm 1 mps 749 mmHg 70%
    23:00 +6°C° 0 mm 1 mps 750 mmHg 70%

    29 May, Wednesday

    Time Temperature Precipitation Wind Pressure Humidity
    00:00 +6°C° 0 mm 1 mps 750 mmHg 71%
    01:00 +5°C° 0 mm 1 mps 750 mmHg 72%
    02:00 +4°C° 0 mm 2 mps 750 mmHg 69%
    03:00 +5°C° 0 mm 2 mps 750 mmHg 66%
    04:00 +5°C° 0 mm 2 mps 750 mmHg 64%
    05:00 +6°C° 0 mm 2 mps 750 mmHg 61%
    06:00 +7°C° 0 mm 2 mps 749 mmHg 58%
    07:00 +8°C° 0 mm 2 mps 749 mmHg 54%
    08:00 +9°C° 0 mm 2 mps 749 mmHg 53%
    09:00 +10°C° 0 mm 2 mps 749 mmHg 52%
    10:00 +12°C° 0 mm 2 mps 749 mmHg 51%
    11:00 +12°C° 0 mm 3 mps 748 mmHg 48%
    12:00 +13°C° 0 mm 3 mps 748 mmHg 46%
    13:00 +13°C° 0 mm 4 mps 748 mmHg 43%
    14:00 +14°C° 0 mm 4 mps 747 mmHg 42%
    15:00 +14°C° 0 mm 3 mps 747 mmHg 41%
    16:00 +14°C° 0 mm 3 mps 746 mmHg 41%
    17:00 +14°C° 0 mm 3 mps 746 mmHg 42%
    18:00 +14°C° 0 mm 3 mps 746 mmHg 43%
    19:00 +14°C° 0 mm 3 mps 745 mmHg 45%
    20:00 +13°C° 0 mm 3 mps 745 mmHg 50%
    21:00 +12°C° 0 mm 3 mps 744 mmHg 56%
    22:00 +11°C° 0 mm 3 mps 744 mmHg 62%
    23:00 +10°C° 0 mm 3 mps 743 mmHg 64%

    30 May, Thursday

    Time Temperature Precipitation Wind Pressure Humidity
    00:00 +10°C° 0 mm 3 mps 743 mmHg 67%
    01:00 +9°C° 0 mm 2 mps 743 mmHg 70%
    02:00 +9°C° 0 mm 2 mps 742 mmHg 71%
    03:00 +9°C° 0 mm 2 mps 742 mmHg 72%
    04:00 +9°C° 0 mm 2 mps 741 mmHg 74%
    05:00 +9°C° 0.3 mm 2 mps 741 mmHg 76%
    06:00 +10°C° 0.3 mm 1 mps 740 mmHg 77%
    07:00 +10°C° 0.3 mm 1 mps 740 mmHg 79%
    08:00 +10°C° 2.8 mm 1 mps 739 mmHg 84%
    09:00 +8°C° 2.8 mm 2 mps 739 mmHg 89%
    10:00 +7°C° 2.8 mm 2 mps 739 mmHg 94%
    11:00 +7°C° 1.8 mm 3 mps 739 mmHg 90%
    12:00 +5°C° 1.8 mm 4 mps 740 mmHg 87%
    13:00 +5°C° 1.8 mm 5 mps 740 mmHg 83%
    14:00 +5°C° 0.7 mm 5 mps 740 mmHg 81%
    15:00 +5°C° 0.7 mm 5 mps 741 mmHg 78%
    16:00 +5°C° 0.7 mm 5 mps 741 mmHg 75%
    17:00 +5°C° 0.2 mm 5 mps 741 mmHg 72%
    18:00 +5°C° 0.2 mm 5 mps 742 mmHg 69%
    19:00 +6°C° 0.2 mm 5 mps 742 mmHg 66%
    20:00 +5°C° 0 mm 4 mps 742 mmHg 69%
    21:00 +4°C° 0 mm 3 mps 742 mmHg 71%
    22:00 +5°C° 0 mm 2 mps 742 mmHg 73%
    23:00 +5°C° 0 mm 2 mps 742 mmHg 73%
    Show more